Location: Agendoh
(31.0664°N, 8.9343°W)
Time: 19:15:38
(UTC+00:00)

Cosmos 1151 Rocket - Pass Details

Date: 03 July 2022
Orbit: 592 x 614 km, 82.5° (Epoch: 07 August)

Event Time Altitude Azimuth Distance (km) Brightness Sun altitude
Rises 03:33:59 0° 337° (NNW) 2,885 6.8 -21.8°
Reaches altitude 10° 03:36:31 10° 324° (NW) 1,976 5.8 -21.4°
Enters shadow 03:38:50 21° 295° (WNW) 1,380 4.6 -21.0°
